QPF
0.00 0.00 0.00 0.01 0.01 0.02 0.02 0.02 0.02 0.02 0.01 0.01 0.02 0.02 0.02 0.01 0.02 0.02 0.02 0.01 0.01 0.01 0.01 0.01 0.01 0.01 0.02 0.03 0.04 0.04 0.08 0.09 0.08 0.08 0.06 0.04 0.04 0.03 0.04 0.05 0.04 0.03 0.03 0.03
0.01 0.01 0.01 0.01 0.02 0.01 0.01 0.02 0.02 0.02 0.01 0.01 0.01 0.01 0.01 0.02 0.02 0.02 0.01 0.01 0.01 0.01 0.02 0.02 0.02 0.03 0.03 0.02 0.03 0.04 0.06 0.07 0.08 0.07 0.06 0.04 0.04 0.03 0.03 0.03 0.04 0.04 0.04 0.05
0.01 0.01 0.01 0.01 0.01 0.01 0.02 0.03 0.04 0.04 0.03 0.00 0.01 0.02 0.02 0.03 0.01 0.00 0.01 0.01 0.01 0.00 0.01 0.01 0.01 0.03 0.03 0.01 0.02 0.04 0.06 0.08 0.08 0.07 0.07 0.06 0.06 0.05 0.04 0.04 0.05 0.04 0.03 0.03
0.00 0.00 0.01 0.00 0.00 0.01 0.01 0.02 0.02 0.01 0.01 0.01 0.01 0.04 0.06 0.06 0.03 0.01 0.01 0.01 0.00 0.00 0.01 0.01 0.02 0.03 0.03 0.02 0.03 0.04 0.08 0.10 0.09 0.10 0.10 0.07 0.06 0.06 0.06 0.06 0.05 0.04 0.03 0.04
0.00 0.00 0.00 0.00 0.00 0.00 0.00 0.00 0.00 0.00 0.00 0.01 0.02 0.03 0.04 0.03 0.03 0.02 0.03 0.02 0.01 0.01 0.01 0.02 0.03 0.03 0.03 0.03 0.03 0.04 0.05 0.05 0.07 0.10 0.12 0.09 0.08 0.08 0.07 0.06 0.06 0.05 0.04 0.04
0.00 0.00 0.00 0.00 0.00 0.00 0.00 0.00 0.00 0.00 0.01 0.03 0.01 0.02 0.04 0.03 0.02 0.02 0.03 0.02 0.01 0.01 0.01 0.01 0.03 0.03 0.04 0.04 0.03 0.04 0.04 0.03 0.04 0.06 0.08 0.09 0.08 0.08 0.08 0.08 0.07 0.06 0.05 0.05
0.00 0.00 0.00 0.00 0.00 0.00 0.00 0.01 0.03 0.04 0.05 0.04 0.01 0.02 0.03 0.01 0.00 0.01 0.01 0.01 0.01 0.01 0.01 0.01 0.03 0.03 0.03 0.05 0.05 0.04 0.04 0.04 0.04 0.06 0.07 0.08 0.09 0.09 0.09 0.09 0.07 0.06 0.06 0.05
0.01 0.00 0.00 0.00 0.00 0.00 0.00 0.00 0.03 0.07 0.05 0.04 0.03 0.04 0.03 0.01 0.00 0.00 0.00 0.01 0.02 0.03 0.02 0.02 0.03 0.04 0.03 0.04 0.05 0.05 0.04 0.06 0.05 0.06 0.08 0.08 0.09 0.09 0.08 0.09 0.07 0.07 0.07 0.06
0.01 0.00 0.00 0.00 0.00 0.00 0.00 0.00 0.01 0.04 0.02 0.02 0.03 0.04 0.02 0.02 0.02 0.01 0.00 0.00 0.01 0.02 0.03 0.03 0.04 0.04 0.04 0.05 0.04 0.04 0.05 0.05 0.05 0.05 0.05 0.06 0.06 0.06 0.07 0.08 0.09 0.09 0.08 0.07
0.00 0.00 0.00 0.00 0.00 0.00 0.00 0.00 0.01 0.03 0.03 0.03 0.02 0.03 0.03 0.03 0.01 0.01 0.01 0.00 0.01 0.02 0.02 0.03 0.05 0.05 0.06 0.04 0.03 0.04 0.05 0.06 0.06 0.05 0.04 0.04 0.05 0.06 0.07 0.08 0.08 0.09 0.08 0.07
0.00 0.00 0.00 0.00 0.00 0.00 0.00 0.00 0.00 0.01 0.01 0.03 0.04 0.05 0.04 0.02 0.01 0.01 0.01 0.00 0.01 0.01 0.01 0.04 0.05 0.05 0.04 0.03 0.03 0.04 0.05 0.04 0.03 0.04 0.05 0.05 0.05 0.06 0.06 0.07 0.06 0.06 0.05 0.05
0.00 0.00 0.01 0.00 0.00 0.00 0.00 0.00 0.01 0.01 0.01 0.01 0.02 0.04 0.02 0.01 0.01 0.01 0.01 0.01 0.01 0.01 0.02 0.04 0.05 0.05 0.05 0.04 0.05 0.06 0.06 0.04 0.03 0.05 0.06 0.07 0.06 0.05 0.07 0.08 0.05 0.04 0.03 0.03
0.00 0.01 0.02 0.03 0.02 0.00 0.00 0.00 0.01 0.01 0.01 0.01 0.02 0.04 0.02 0.00 0.00 0.00 0.01 0.01 0.01 0.02 0.02 0.03 0.03 0.05 0.07 0.05 0.04 0.04 0.03 0.04 0.05 0.05 0.07 0.08 0.06 0.05 0.06 0.06 0.04 0.03 0.03 0.03
0.00 0.00 0.01 0.02 0.02 0.01 0.01 0.00 0.00 0.00 0.01 0.01 0.02 0.03 0.02 0.01 0.01 0.01 0.01 0.01 0.01 0.01 0.03 0.04 0.04 0.05 0.06 0.05 0.03 0.03 0.03 0.05 0.06 0.08 0.10 0.10 0.07 0.06 0.06 0.06 0.05 0.03 0.03 0.02
0.00 0.00 0.00 0.00 0.00 0.00 0.00 0.00 0.00 0.00 0.00 0.01 0.03 0.04 0.03 0.01 0.01 0.01 0.01 0.01 0.01 0.01 0.04 0.06 0.04 0.03 0.04 0.05 0.04 0.03 0.05 0.06 0.05 0.06 0.08 0.08 0.07 0.06 0.06 0.05 0.03 0.02 0.02 0.01
0.00 0.00 0.00 0.00 0.00 0.00 0.00 0.00 0.00 0.00 0.00 0.01 0.03 0.04 0.01 0.01 0.01 0.01 0.01 0.01 0.01 0.01 0.03 0.04 0.04 0.03 0.04 0.04 0.04 0.04 0.03 0.04 0.05 0.04 0.04 0.05 0.04 0.04 0.04 0.04 0.03 0.01 0.01 0.02
0.00 0.01 0.01 0.01 0.00 0.00 0.00 0.00 0.00 0.00 0.01 0.01 0.02 0.03 0.00 0.00 0.00 0.01 0.01 0.01 0.00 0.01 0.02 0.03 0.03 0.02 0.04 0.04 0.05 0.05 0.03 0.03 0.03 0.03 0.03 0.03 0.03 0.03 0.03 0.03 0.02 0.01 0.02 0.02
0.00 0.01 0.02 0.02 0.01 0.02 0.01 0.00 0.00 0.00 0.01 0.01 0.01 0.02 0.01 0.00 0.01 0.01 0.00 0.01 0.01 0.00 0.02 0.03 0.03 0.02 0.04 0.04 0.05 0.05 0.03 0.02 0.01 0.02 0.02 0.03 0.03 0.03 0.04 0.03 0.02 0.02 0.02 0.02
0.00 0.01 0.02 0.02 0.02 0.02 0.01 0.01 0.00 0.00 0.00 0.00 0.00 0.01 0.00 0.00 0.01 0.02 0.01 0.00 0.00 0.01 0.02 0.03 0.02 0.03 0.03 0.03 0.03 0.04 0.03 0.02 0.01 0.01 0.02 0.03 0.03 0.03 0.04 0.03 0.03 0.03 0.02 0.02
0.00 0.00 0.01 0.01 0.02 0.02 0.02 0.01 0.00 0.00 0.02 0.00 0.00 0.00 0.00 0.00 0.01 0.01 0.00 0.00 0.00 0.01 0.03 0.03 0.02 0.02 0.02 0.01 0.02 0.02 0.03 0.04 0.02 0.01 0.02 0.02 0.02 0.03 0.04 0.03 0.03 0.03 0.03 0.02
0.01 0.01 0.02 0.02 0.02 0.02 0.01 0.00 0.01 0.02 0.03 0.01 0.00 0.00 0.00 0.01 0.01 0.01 0.00 0.00 0.00 0.01 0.03 0.04 0.04 0.03 0.02 0.02 0.02 0.02 0.03 0.04 0.04 0.02 0.02 0.02 0.03 0.04 0.05 0.04 0.04 0.03 0.02 0.02
0.02 0.02 0.03 0.03 0.04 0.04 0.02 0.01 0.02 0.02 0.01 0.01 0.01 0.00 0.00 0.00 0.00 0.00 0.00 0.00 0.01 0.01 0.02 0.02 0.03 0.03 0.02 0.02 0.02 0.03 0.03 0.04 0.05 0.04 0.03 0.03 0.03 0.03 0.03 0.04 0.04 0.03 0.03 0.03
0.02 0.02 0.03 0.04 0.04 0.03 0.02 0.05 0.04 0.01 0.00 0.00 0.00 0.00 0.00 0.00 0.00 0.00 0.00 0.01 0.01 0.01 0.01 0.02 0.01 0.01 0.01 0.01 0.01 0.02 0.03 0.02 0.03 0.04 0.04 0.03 0.02 0.02 0.02 0.03 0.03 0.03 0.03 0.02
0.01 0.01 0.01 0.03 0.04 0.03 0.02 0.03 0.03 0.01 0.00 0.00 0.00 0.00 0.00 0.00 0.00 0.00 0.01 0.01 0.02 0.02 0.02 0.02 0.01 0.01 0.01 0.01 0.01 0.01 0.01 0.01 0.01 0.02 0.04 0.04 0.03 0.02 0.02 0.02 0.02 0.02 0.02 0.01
0.02 0.02 0.01 0.01 0.01 0.01 0.02 0.01 0.01 0.01 0.01 0.01 0.00 0.00 0.00 0.00 0.01 0.01 0.01 0.01 0.02 0.03 0.03 0.02 0.01 0.01 0.01 0.01 0.01 0.01 0.00 0.01 0.01 0.01 0.03 0.04 0.03 0.03 0.02 0.01 0.02 0.02 0.01 0.01
0.02 0.01 0.01 0.01 0.01 0.00 0.00 0.00 0.00 0.01 0.01 0.01 0.01 0.01 0.00 0.00 0.00 0.01 0.01 0.01 0.02 0.03 0.03 0.02 0.01 0.01 0.02 0.01 0.02 0.01 0.00 0.00 0.00 0.01 0.02 0.03 0.03 0.03 0.03 0.02 0.02 0.01 0.01 0.00
MSLP
1010.63 1011.40 1011.95 1012.28 1012.41 1012.41 1012.32 1012.19 1012.05 1011.91 1011.75 1011.56 1011.34 1011.07 1010.79 1010.51 1010.28 1010.12 1010.06 1010.10 1010.19 1010.32 1010.42 1010.46 1010.40 1010.26 1010.04 1009.79 1009.58 1009.45 1009.47 1009.64 1009.96 1010.40 1010.91 1011.44 1011.92 1012.32 1012.61 1012.80 1012.92 1013.00 1013.08 1013.20
1011.87 1012.54 1012.96 1013.15 1013.15 1013.03 1012.84 1012.63 1012.42 1012.20 1011.98 1011.73 1011.43 1011.10 1010.75 1010.43 1010.17 1010.01 1009.96 1010.01 1010.14 1010.29 1010.41 1010.45 1010.37 1010.19 1009.93 1009.64 1009.40 1009.26 1009.27 1009.47 1009.83 1010.31 1010.86 1011.42 1011.92 1012.32 1012.60 1012.77 1012.88 1012.94 1013.03 1013.17
1012.60 1013.14 1013.43 1013.49 1013.40 1013.20 1012.97 1012.73 1012.49 1012.27 1012.01 1011.72 1011.38 1010.99 1010.59 1010.22 1009.93 1009.76 1009.73 1009.81 1009.98 1010.18 1010.34 1010.40 1010.34 1010.15 1009.87 1009.57 1009.30 1009.15 1009.17 1009.37 1009.74 1010.25 1010.82 1011.39 1011.89 1012.28 1012.55 1012.72 1012.80 1012.87 1012.96 1013.10
1012.73 1013.13 1013.31 1013.30 1013.17 1012.98 1012.78 1012.58 1012.40 1012.21 1011.97 1011.67 1011.29 1010.85 1010.39 1009.97 1009.64 1009.45 1009.41 1009.53 1009.74 1010.00 1010.22 1010.33 1010.32 1010.17 1009.91 1009.61 1009.35 1009.19 1009.19 1009.38 1009.75 1010.25 1010.81 1011.37 1011.87 1012.25 1012.52 1012.68 1012.77 1012.84 1012.93 1013.09
1012.36 1012.64 1012.74 1012.71 1012.62 1012.50 1012.41 1012.34 1012.27 1012.16 1011.98 1011.69 1011.29 1010.79 1010.26 1009.76 1009.36 1009.13 1009.08 1009.20 1009.46 1009.78 1010.08 1010.29 1010.36 1010.27 1010.07 1009.80 1009.54 1009.38 1009.36 1009.52 1009.85 1010.32 1010.85 1011.39 1011.88 1012.26 1012.53 1012.70 1012.80 1012.89 1013.00 1013.17
1011.67 1011.85 1011.92 1011.93 1011.92 1011.94 1012.01 1012.10 1012.18 1012.20 1012.09 1011.83 1011.40 1010.85 1010.23 1009.64 1009.16 1008.86 1008.77 1008.89 1009.19 1009.58 1009.97 1010.28 1010.45 1010.46 1010.33 1010.12 1009.88 1009.71 1009.66 1009.77 1010.05 1010.46 1010.95 1011.46 1011.93 1012.31 1012.60 1012.79 1012.92 1013.04 1013.17 1013.36
1010.91 1011.02 1011.09 1011.15 1011.26 1011.43 1011.68 1011.95 1012.19 1012.32 1012.29 1012.06 1011.62 1011.01 1010.31 1009.62 1009.04 1008.66 1008.52 1008.64 1008.95 1009.40 1009.88 1010.30 1010.59 1010.71 1010.68 1010.52 1010.31 1010.13 1010.05 1010.10 1010.31 1010.65 1011.09 1011.56 1012.01 1012.40 1012.71 1012.94 1013.11 1013.26 1013.43 1013.62
1010.29 1010.36 1010.43 1010.55 1010.76 1011.07 1011.46 1011.88 1012.24 1012.48 1012.51 1012.30 1011.84 1011.18 1010.41 1009.64 1008.98 1008.53 1008.35 1008.44 1008.77 1009.27 1009.83 1010.35 1010.75 1010.98 1011.03 1010.95 1010.77 1010.59 1010.47 1010.46 1010.59 1010.86 1011.23 1011.66 1012.09 1012.49 1012.83 1013.10 1013.32 1013.52 1013.71 1013.91
1009.94 1009.98 1010.05 1010.21 1010.48 1010.86 1011.33 1011.83 1012.26 1012.55 1012.61 1012.42 1011.95 1011.27 1010.47 1009.64 1008.93 1008.44 1008.22 1008.29 1008.63 1009.16 1009.78 1010.38 1010.88 1011.21 1011.35 1011.33 1011.19 1011.01 1010.86 1010.80 1010.86 1011.06 1011.36 1011.75 1012.16 1012.57 1012.93 1013.25 1013.51 1013.74 1013.95 1014.16
1009.88 1009.89 1009.95 1010.10 1010.37 1010.75 1011.22 1011.71 1012.14 1012.43 1012.49 1012.30 1011.84 1011.17 1010.37 1009.55 1008.84 1008.34 1008.11 1008.18 1008.52 1009.06 1009.72 1010.37 1010.94 1011.34 1011.56 1011.60 1011.51 1011.35 1011.19 1011.09 1011.10 1011.24 1011.49 1011.83 1012.22 1012.62 1013.01 1013.35 1013.64 1013.89 1014.12 1014.32
1010.01 1010.01 1010.04 1010.14 1010.35 1010.65 1011.03 1011.43 1011.79 1012.02 1012.05 1011.86 1011.43 1010.81 1010.07 1009.31 1008.66 1008.20 1007.99 1008.07 1008.41 1008.95 1009.62 1010.29 1010.89 1011.35 1011.64 1011.74 1011.71 1011.58 1011.44 1011.33 1011.31 1011.41 1011.61 1011.91 1012.28 1012.67 1013.05 1013.40 1013.71 1013.97 1014.19 1014.38
1010.20 1010.19 1010.18 1010.21 1010.31 1010.48 1010.71 1010.96 1011.18 1011.31 1011.30 1011.10 1010.72 1010.18 1009.55 1008.91 1008.37 1007.99 1007.84 1007.94 1008.28 1008.81 1009.46 1010.13 1010.75 1011.24 1011.57 1011.74 1011.77 1011.70 1011.60 1011.52 1011.51 1011.58 1011.76 1012.03 1012.36 1012.72 1013.09 1013.43 1013.73 1013.98 1014.19 1014.36
1010.30 1010.31 1010.27 1010.22 1010.18 1010.19 1010.24 1010.31 1010.37 1010.38 1010.29 1010.09 1009.77 1009.34 1008.86 1008.38 1007.97 1007.71 1007.64 1007.78 1008.13 1008.64 1009.25 1009.89 1010.49 1011.00 1011.37 1011.60 1011.71 1011.72 1011.69 1011.67 1011.68 1011.77 1011.94 1012.18 1012.48 1012.81 1013.14 1013.45 1013.72 1013.95 1014.14 1014.29
1010.24 1010.27 1010.22 1010.10 1009.96 1009.80 1009.67 1009.55 1009.44 1009.32 1009.16 1008.96 1008.70 1008.39 1008.06 1007.75 1007.51 1007.38 1007.40 1007.59 1007.94 1008.41 1008.98 1009.57 1010.15 1010.65 1011.05 1011.34 1011.53 1011.64 1011.70 1011.76 1011.83 1011.95 1012.13 1012.35 1012.62 1012.91 1013.19 1013.46 1013.70 1013.90 1014.06 1014.19
1010.00 1010.08 1010.04 1009.88 1009.65 1009.37 1009.07 1008.78 1008.51 1008.27 1008.04 1007.83 1007.62 1007.41 1007.23 1007.08 1007.00 1007.00 1007.12 1007.35 1007.70 1008.14 1008.65 1009.19 1009.73 1010.21 1010.64 1010.98 1011.25 1011.45 1011.62 1011.76 1011.91 1012.07 1012.27 1012.49 1012.74 1012.99 1013.23 1013.45 1013.65 1013.82 1013.96 1014.07
1009.63 1009.77 1009.76 1009.60 1009.31 1008.94 1008.53 1008.10 1007.70 1007.34 1007.04 1006.80 1006.62 1006.50 1006.43 1006.42 1006.47 1006.59 1006.79 1007.06 1007.41 1007.82 1008.28 1008.76 1009.25 1009.71 1010.14 1010.52 1010.85 1011.14 1011.40 1011.63 1011.86 1012.08 1012.30 1012.53 1012.76 1012.98 1013.19 1013.38 1013.54 1013.68 1013.79 1013.89
1009.22 1009.41 1009.43 1009.29 1008.99 1008.57 1008.08 1007.55 1007.04 1006.59 1006.22 1005.95 1005.78 1005.70 1005.71 1005.80 1005.95 1006.16 1006.43 1006.73 1007.08 1007.46 1007.87 1008.30 1008.73 1009.16 1009.58 1009.98 1010.35 1010.70 1011.03 1011.34 1011.63 1011.90 1012.16 1012.40 1012.63 1012.84 1013.02 1013.18 1013.32 1013.44 1013.53 1013.62
1008.83 1009.05 1009.11 1008.98 1008.69 1008.26 1007.72 1007.14 1006.55 1006.03 1005.59 1005.28 1005.09 1005.02 1005.08 1005.23 1005.45 1005.73 1006.04 1006.38 1006.73 1007.08 1007.45 1007.82 1008.20 1008.59 1008.98 1009.36 1009.75 1010.13 1010.50 1010.86 1011.20 1011.51 1011.80 1012.06 1012.30 1012.50 1012.68 1012.83 1012.96 1013.06 1013.15 1013.23
1008.50 1008.71 1008.77 1008.66 1008.38 1007.95 1007.40 1006.79 1006.16 1005.59 1005.10 1004.74 1004.53 1004.46 1004.53 1004.71 1004.98 1005.30 1005.65 1006.01 1006.37 1006.71 1007.05 1007.37 1007.70 1008.03 1008.37 1008.73 1009.10 1009.48 1009.85 1010.23 1010.59 1010.93 1011.24 1011.53 1011.78 1011.99 1012.18 1012.33 1012.46 1012.56 1012.65 1012.72
1008.20 1008.36 1008.39 1008.27 1008.00 1007.57 1007.03 1006.41 1005.77 1005.18 1004.67 1004.28 1004.05 1003.97 1004.04 1004.24 1004.54 1004.89 1005.28 1005.66 1006.03 1006.37 1006.68 1006.98 1007.25 1007.53 1007.82 1008.13 1008.45 1008.80 1009.15 1009.52 1009.88 1010.23 1010.56 1010.86 1011.12 1011.36 1011.55 1011.72 1011.85 1011.96 1012.04 1012.11
1007.86 1007.93 1007.89 1007.74 1007.45 1007.03 1006.51 1005.92 1005.30 1004.71 1004.21 1003.83 1003.60 1003.52 1003.60 1003.82 1004.13 1004.51 1004.93 1005.34 1005.72 1006.07 1006.37 1006.64 1006.88 1007.11 1007.35 1007.60 1007.87 1008.17 1008.49 1008.83 1009.17 1009.52 1009.85 1010.15 1010.43 1010.68 1010.89 1011.06 1011.20 1011.31 1011.40 1011.46
1007.40 1007.34 1007.21 1007.00 1006.69 1006.28 1005.79 1005.24 1004.67 1004.14 1003.68 1003.33 1003.13 1003.08 1003.17 1003.41 1003.75 1004.15 1004.59 1005.03 1005.43 1005.79 1006.10 1006.36 1006.58 1006.78 1006.97 1007.17 1007.40 1007.65 1007.93 1008.24 1008.56 1008.89 1009.21 1009.52 1009.80 1010.04 1010.26 1010.43 1010.57 1010.68 1010.77 1010.83
1006.76 1006.56 1006.33 1006.05 1005.71 1005.30 1004.85 1004.37 1003.88 1003.42 1003.04 1002.76 1002.61 1002.60 1002.73 1002.99 1003.35 1003.78 1004.24 1004.70 1005.13 1005.51 1005.83 1006.09 1006.31 1006.50 1006.67 1006.85 1007.05 1007.27 1007.53 1007.81 1008.11 1008.42 1008.73 1009.02 1009.28 1009.52 1009.72 1009.88 1010.01 1010.11 1010.19 1010.25
1005.92 1005.60 1005.26 1004.91 1004.54 1004.15 1003.74 1003.33 1002.94 1002.59 1002.30 1002.11 1002.03 1002.07 1002.25 1002.53 1002.91 1003.35 1003.83 1004.30 1004.75 1005.15 1005.49 1005.78 1006.02 1006.22 1006.41 1006.59 1006.79 1007.01 1007.26 1007.54 1007.82 1008.12 1008.41 1008.68 1008.92 1009.12 1009.29 1009.42 1009.52 1009.60 1009.67 1009.74
1004.95 1004.51 1004.09 1003.67 1003.28 1002.90 1002.55 1002.21 1001.91 1001.66 1001.48 1001.38 1001.38 1001.48 1001.69 1002.00 1002.39 1002.83 1003.31 1003.79 1004.24 1004.66 1005.04 1005.36 1005.64 1005.88 1006.11 1006.34 1006.57 1006.82 1007.09 1007.37 1007.66 1007.95 1008.22 1008.46 1008.67 1008.83 1008.95 1009.03 1009.09 1009.14 1009.19 1009.26
1003.95 1003.43 1002.93 1002.48 1002.06 1001.70 1001.38 1001.11 1000.88 1000.72 1000.62 1000.60 1000.66 1000.80 1001.04 1001.36 1001.75 1002.18 1002.65 1003.13 1003.59 1004.03 1004.43 1004.80 1005.13 1005.43 1005.73 1006.01 1006.31 1006.61 1006.92 1007.24 1007.54 1007.83 1008.08 1008.30 1008.46 1008.57 1008.63 1008.66 1008.67 1008.68 1008.71 1008.77
Thickness
5794 5781 5773 5782 5789 5787 5784 5780 5779 5790 5804 5793 5785 5783 5782 5784 5781 5776 5770 5765 5763 5758 5759 5757 5754 5750 5747 5743 5739 5736 5733 5730 5728 5724 5721 5718 5717 5717 5716 5716 5714 5712 5710 5708
5781 5778 5790 5796 5795 5791 5785 5778 5781 5789 5799 5791 5784 5782 5787 5787 5781 5776 5769 5763 5761 5756 5754 5752 5749 5746 5742 5739 5736 5733 5730 5727 5724 5721 5718 5716 5715 5714 5714 5712 5709 5708 5706 5704
5775 5788 5799 5791 5788 5783 5784 5782 5780 5778 5786 5793 5783 5772 5777 5781 5781 5777 5773 5767 5763 5758 5752 5749 5745 5742 5739 5735 5732 5730 5726 5723 5721 5718 5715 5713 5712 5710 5708 5707 5706 5705 5703 5702
5786 5799 5795 5788 5786 5784 5775 5793 5789 5782 5774 5771 5776 5752 5763 5769 5765 5767 5766 5764 5762 5759 5754 5748 5744 5740 5736 5733 5731 5727 5723 5719 5717 5714 5710 5707 5704 5702 5703 5703 5702 5701 5700 5698
5789 5798 5793 5785 5789 5790 5787 5798 5791 5784 5777 5771 5774 5757 5760 5768 5758 5760 5763 5762 5760 5757 5752 5746 5743 5739 5736 5733 5729 5725 5720 5716 5713 5710 5707 5703 5702 5701 5701 5700 5698 5696 5695 5694
5798 5809 5805 5798 5802 5802 5799 5793 5789 5786 5777 5753 5767 5760 5751 5763 5761 5762 5762 5760 5757 5754 5751 5746 5742 5738 5733 5731 5727 5722 5717 5712 5710 5706 5703 5700 5698 5697 5695 5693 5691 5690 5689 5688
5784 5797 5807 5808 5792 5795 5791 5771 5753 5748 5748 5748 5769 5760 5752 5769 5773 5767 5761 5758 5755 5751 5745 5741 5737 5733 5728 5726 5723 5719 5714 5709 5706 5703 5700 5697 5695 5693 5691 5689 5687 5685 5683 5682
5769 5775 5797 5802 5790 5782 5782 5774 5744 5728 5735 5745 5760 5751 5756 5774 5774 5772 5766 5759 5754 5747 5743 5739 5734 5730 5726 5722 5719 5715 5711 5706 5703 5700 5697 5694 5692 5690 5688 5686 5684 5681 5679 5677
5768 5772 5800 5803 5802 5792 5777 5776 5778 5759 5754 5746 5753 5754 5756 5769 5764 5762 5758 5753 5748 5744 5741 5736 5732 5727 5723 5720 5716 5712 5708 5704 5701 5699 5695 5692 5689 5686 5684 5682 5680 5677 5675 5673
5780 5767 5789 5798 5797 5796 5790 5781 5769 5751 5736 5733 5743 5747 5744 5749 5751 5753 5749 5746 5743 5742 5738 5734 5729 5725 5721 5718 5714 5711 5707 5703 5700 5697 5694 5691 5687 5684 5681 5679 5675 5673 5670 5668
5788 5768 5777 5786 5778 5775 5779 5774 5766 5758 5756 5735 5725 5731 5758 5754 5753 5749 5747 5746 5742 5740 5735 5731 5727 5723 5719 5715 5711 5707 5704 5701 5697 5694 5691 5687 5683 5680 5678 5674 5671 5669 5666 5664
5784 5773 5763 5776 5792 5795 5784 5774 5767 5745 5745 5750 5737 5731 5763 5759 5757 5752 5747 5744 5741 5738 5734 5729 5724 5720 5715 5711 5708 5704 5701 5697 5694 5691 5687 5683 5679 5676 5673 5670 5667 5665 5662 5660
5775 5763 5746 5752 5765 5778 5774 5776 5773 5766 5755 5745 5732 5730 5756 5755 5751 5749 5744 5740 5737 5734 5729 5725 5720 5715 5711 5707 5704 5701 5697 5694 5691 5687 5683 5679 5675 5672 5669 5666 5664 5661 5658 5656
5773 5760 5748 5739 5751 5764 5763 5769 5771 5762 5746 5740 5739 5738 5743 5745 5741 5740 5738 5736 5733 5729 5725 5720 5716 5712 5708 5704 5701 5697 5694 5691 5688 5684 5680 5675 5672 5669 5666 5663 5660 5658 5655 5653
5768 5753 5758 5763 5771 5771 5766 5765 5765 5759 5754 5742 5740 5739 5740 5741 5740 5737 5735 5732 5728 5723 5719 5716 5712 5708 5704 5701 5697 5694 5691 5688 5685 5681 5676 5672 5670 5667 5664 5660 5658 5655 5652 5650
5760 5747 5751 5753 5764 5765 5760 5763 5761 5758 5756 5749 5743 5736 5745 5746 5742 5735 5731 5727 5722 5717 5714 5712 5709 5705 5701 5698 5695 5692 5688 5686 5682 5678 5674 5672 5668 5665 5661 5658 5655 5651 5649 5646
5750 5741 5736 5738 5755 5754 5742 5756 5757 5753 5754 5748 5734 5734 5741 5735 5732 5728 5725 5723 5718 5714 5711 5707 5704 5702 5699 5697 5693 5689 5686 5684 5680 5676 5673 5669 5665 5661 5657 5655 5651 5648 5645 5642
5742 5736 5733 5733 5735 5714 5742 5765 5762 5752 5747 5747 5740 5737 5735 5731 5731 5728 5726 5720 5714 5711 5708 5704 5702 5700 5698 5695 5692 5688 5685 5681 5677 5673 5670 5667 5663 5658 5655 5652 5648 5645 5642 5639
5748 5734 5726 5724 5720 5724 5739 5752 5752 5742 5731 5739 5733 5731 5730 5730 5725 5719 5721 5718 5713 5709 5705 5702 5701 5698 5694 5691 5688 5684 5680 5677 5673 5669 5667 5664 5660 5656 5652 5648 5645 5642 5639 5637
5745 5737 5723 5719 5710 5707 5725 5745 5753 5742 5718 5732 5729 5724 5723 5722 5709 5708 5715 5714 5711 5707 5703 5700 5698 5695 5690 5687 5684 5679 5675 5672 5668 5666 5663 5660 5657 5653 5649 5646 5643 5640 5637 5634
5724 5722 5715 5711 5707 5714 5730 5741 5741 5711 5705 5722 5723 5720 5717 5712 5709 5710 5712 5709 5706 5703 5700 5697 5693 5689 5686 5683 5680 5674 5670 5667 5665 5663 5660 5657 5654 5650 5647 5643 5641 5638 5635 5632
5716 5713 5710 5707 5698 5699 5723 5725 5712 5706 5717 5718 5717 5715 5711 5708 5709 5708 5705 5703 5700 5697 5695 5692 5687 5684 5682 5679 5675 5670 5666 5665 5663 5660 5656 5653 5650 5648 5646 5641 5638 5636 5632 5629
5715 5712 5711 5706 5700 5708 5715 5711 5710 5711 5710 5711 5710 5709 5706 5703 5701 5701 5698 5696 5694 5692 5689 5687 5683 5679 5677 5674 5671 5665 5664 5662 5659 5655 5652 5649 5647 5644 5642 5638 5635 5633 5630 5627
5710 5715 5708 5702 5702 5704 5706 5706 5706 5707 5706 5707 5706 5704 5701 5697 5695 5694 5691 5689 5687 5686 5684 5682 5678 5674 5671 5670 5667 5664 5662 5659 5655 5651 5648 5645 5643 5641 5638 5636 5634 5630 5627 5624
5696 5697 5696 5693 5696 5698 5698 5700 5701 5701 5702 5700 5699 5698 5695 5692 5689 5688 5685 5683 5681 5680 5678 5676 5673 5669 5667 5665 5663 5661 5659 5655 5651 5647 5644 5642 5640 5638 5635 5632 5629 5627 5623 5620
5687 5686 5682 5680 5687 5687 5688 5694 5697 5693 5692 5691 5690 5688 5688 5686 5683 5682 5679 5678 5676 5674 5672 5669 5667 5664 5663 5661 5659 5658 5655 5652 5647 5643 5641 5640 5638 5636 5633 5630 5627 5624 5620 5616